Погода в Улгий

Монголия     48°58′09″N   89°56′38″E
темп.,
°C
ветер,
м/с
пор.,
м/с
влажн.,
%
обл.,
%
осадки,
мм/ч
давл.,
гПа
погр.,
м
10 августа, ср
ср1023:00+16зюз814430 0.0 1008542
02:00+14юз34545 0.0 100953
05:00+13юз34510 0.0 100942
08:00+13з23534 0.0 1010116
11:00+17з45350 0.0 10091208
14:00+21зсз4620100 0.0 10072096
17:00+22сз5618100 0.0 10061875
20:00+22зсз2319100 0.0 10051724
11 августа, чт
чт1123:00+19з3630100 0.0 1008319
02:00+15з8849100 0.1 1010546
05:00+15ссз1148100 0.0 1010259
08:00+15юз114794 0.0 1010195
11:00+17юз114299 0.0 10101059
14:00+20з13336 0.0 10082176
17:00+22с142666 0.0 10052823
20:00+20юв12355 0.4 1006756
12 августа, пт
пт1223:00+17ю114675 0.1 1008118
02:00+15юз22430 0.1 100916
05:00+13зюз22490 0.0 101024
08:00+13зюз23450 0.0 101198
11:00+18з56280 0.0 10091334
14:00+21зсз582118 0.0 10072988
17:00+23з8101562 0.0 10033994
20:00+21сз992299 0.0 10042534
13 августа, сб
сб1323:00+16ссв123658 0.1 100827
02:00+14зюз114516 0.1 100912
05:00+12з22481 0.0 100915
08:00+12зюз224694 0.0 101094
11:00+16зюз23360 0.0 1009942
14:00+19з462313 0.0 10062731
17:00+21з982285 0.1 10042972
20:00+19сз653097 0.3 10052252
14 августа, вс
вс1423:00+16ю344597 0.4 1009296
02:00+14зюз334817 0.4 100956
05:00+13зюз235089 0.0 1010153
08:00+12зюз33525 0.0 1011148
11:00+16зюз46410 0.0 10101347
14:00+21з68235 0.0 10062470
17:00+23з1011181 0.0 10032867
20:00+21зюз1010241 0.0 10041957